• In Hungary
  • List of Countries
  • For 7 days
  • Water Temperature
  • Satellite Maps
  • Weather Map
  • News
  • Weather Widgets
  • user-avatar
    Login

    Hourly Weather Biernatow

    Today, 23 October, Tuesday

    Time Temperature Precipitation Wind Pressure Humidity
    00:00 +6°C° 0 mm 4 mps 748 mmHg 85%
    01:00 +6°C° 0 mm 2 mps 748 mmHg 90%
    02:00 +5°C° 0 mm 2 mps 748 mmHg 91%
    03:00 +5°C° 0 mm 2 mps 748 mmHg 91%
    04:00 +4°C° 0 mm 2 mps 747 mmHg 91%
    05:00 +4°C° 0 mm 2 mps 747 mmHg 89%
    06:00 +4°C° 0 mm 3 mps 746 mmHg 88%
    07:00 +4°C° 0 mm 3 mps 745 mmHg 86%
    08:00 +5°C° 0 mm 4 mps 745 mmHg 78%
    09:00 +7°C° 0 mm 5 mps 744 mmHg 71%
    10:00 +8°C° 0 mm 6 mps 743 mmHg 63%
    11:00 +8°C° 0.1 mm 7 mps 742 mmHg 62%
    12:00 +9°C° 0.1 mm 7 mps 741 mmHg 61%
    13:00 +9°C° 0.1 mm 8 mps 740 mmHg 61%
    14:00 +9°C° 0.8 mm 8 mps 739 mmHg 65%
    15:00 +7°C° 0.8 mm 8 mps 738 mmHg 70%
    16:00 +7°C° 0.8 mm 9 mps 737 mmHg 74%
    17:00 +8°C° 0.5 mm 9 mps 736 mmHg 75%
    18:00 +8°C° 0.5 mm 9 mps 735 mmHg 75%
    19:00 +8°C° 0.5 mm 9 mps 735 mmHg 76%
    20:00 +10°C° 0.6 mm 9 mps 734 mmHg 77%
    21:00 +10°C° 0.6 mm 9 mps 733 mmHg 78%
    22:00 +10°C° 0.6 mm 9 mps 733 mmHg 80%
    23:00 +10°C° 1.2 mm 9 mps 732 mmHg 81%

    Tomorrow, 24 October, Wednesday

    Time Temperature Precipitation Wind Pressure Humidity
    00:00 +10°C° 1.2 mm 9 mps 732 mmHg 82%
    01:00 +10°C° 1.2 mm 9 mps 731 mmHg 82%
    02:00 +10°C° 1.4 mm 9 mps 731 mmHg 81%
    03:00 +8°C° 1.4 mm 9 mps 731 mmHg 79%
    04:00 +8°C° 1.4 mm 9 mps 731 mmHg 77%
    05:00 +7°C° 0.3 mm 9 mps 732 mmHg 75%
    06:00 +6°C° 0.3 mm 9 mps 732 mmHg 74%
    07:00 +5°C° 0.3 mm 9 mps 733 mmHg 72%
    08:00 +5°C° 0.1 mm 10 mps 734 mmHg 67%
    09:00 +6°C° 0.1 mm 10 mps 734 mmHg 62%
    10:00 +6°C° 0.1 mm 11 mps 735 mmHg 58%
    11:00 +6°C° 0.1 mm 10 mps 735 mmHg 56%
    12:00 +6°C° 0.1 mm 10 mps 736 mmHg 54%
    13:00 +6°C° 0.1 mm 10 mps 736 mmHg 52%
    14:00 +6°C° 0 mm 9 mps 737 mmHg 53%
    15:00 +6°C° 0 mm 8 mps 737 mmHg 53%
    16:00 +6°C° 0 mm 7 mps 738 mmHg 54%
    17:00 +5°C° 0 mm 7 mps 738 mmHg 57%
    18:00 +4°C° 0 mm 7 mps 739 mmHg 59%
    19:00 +4°C° 0 mm 6 mps 740 mmHg 62%
    20:00 +3°C° 0 mm 6 mps 740 mmHg 64%
    21:00 +3°C° 0 mm 5 mps 741 mmHg 66%
    22:00 +3°C° 0 mm 5 mps 741 mmHg 68%
    23:00 +2°C° 0 mm 5 mps 741 mmHg 70%

    Day after tomorrow, 25 October, Thursday

    Time Temperature Precipitation Wind Pressure Humidity
    00:00 +3°C° 0 mm 4 mps 741 mmHg 73%
    01:00 +3°C° 0 mm 4 mps 741 mmHg 76%
    02:00 +3°C° 0 mm 4 mps 741 mmHg 77%
    03:00 +3°C° 0 mm 3 mps 740 mmHg 79%
    04:00 +3°C° 0 mm 3 mps 740 mmHg 80%
    05:00 +4°C° 0.4 mm 4 mps 739 mmHg 82%
    06:00 +5°C° 0.4 mm 4 mps 738 mmHg 83%
    07:00 +5°C° 0.4 mm 4 mps 738 mmHg 85%
    08:00 +7°C° 0.4 mm 5 mps 738 mmHg 83%
    09:00 +9°C° 0.4 mm 6 mps 737 mmHg 82%
    10:00 +10°C° 0.4 mm 7 mps 737 mmHg 80%
    11:00 +11°C° 0.1 mm 7 mps 736 mmHg 78%
    12:00 +11°C° 0.1 mm 8 mps 736 mmHg 77%
    13:00 +11°C° 0.1 mm 8 mps 736 mmHg 75%
    14:00 +11°C° 0.1 mm 7 mps 736 mmHg 76%
    15:00 +11°C° 0.1 mm 7 mps 736 mmHg 76%
    16:00 +11°C° 0.1 mm 6 mps 736 mmHg 77%
    17:00 +10°C° 0.1 mm 6 mps 736 mmHg 78%
    18:00 +10°C° 0.1 mm 6 mps 736 mmHg 79%
    19:00 +10°C° 0.1 mm 6 mps 737 mmHg 81%
    20:00 +10°C° 0.2 mm 5 mps 737 mmHg 82%
    21:00 +9°C° 0.2 mm 5 mps 737 mmHg 83%
    22:00 +9°C° 0.2 mm 5 mps 738 mmHg 84%
    23:00 +10°C° 0.2 mm 4 mps 738 mmHg 85%

    26 October, Friday

    Time Temperature Precipitation Wind Pressure Humidity
    00:00 +10°C° 0.2 mm 4 mps 738 mmHg 86%
    01:00 +9°C° 0.2 mm 3 mps 738 mmHg 86%
    02:00 +9°C° 0.1 mm 3 mps 738 mmHg 86%
    03:00 +9°C° 0.1 mm 3 mps 738 mmHg 86%
    04:00 +8°C° 0.1 mm 2 mps 738 mmHg 86%
    05:00 +8°C° 0 mm 2 mps 738 mmHg 86%
    06:00 +8°C° 0 mm 2 mps 738 mmHg 86%
    07:00 +8°C° 0 mm 2 mps 738 mmHg 87%
    08:00 +9°C° 0.1 mm 2 mps 738 mmHg 82%
    09:00 +10°C° 0.1 mm 3 mps 738 mmHg 78%
    10:00 +11°C° 0.1 mm 3 mps 738 mmHg 73%
    11:00 +12°C° 0 mm 3 mps 738 mmHg 70%
    12:00 +12°C° 0 mm 3 mps 737 mmHg 66%
    13:00 +13°C° 0 mm 3 mps 737 mmHg 63%
    14:00 +13°C° 0 mm 3 mps 737 mmHg 65%
    15:00 +12°C° 0 mm 3 mps 736 mmHg 68%
    16:00 +12°C° 0 mm 3 mps 736 mmHg 71%
    17:00 +11°C° 0 mm 3 mps 735 mmHg 73%
    18:00 +11°C° 0 mm 4 mps 735 mmHg 75%
    19:00 +10°C° 0 mm 4 mps 735 mmHg 77%
    20:00 +10°C° 0 mm 4 mps 735 mmHg 79%
    21:00 +8°C° 0 mm 4 mps 735 mmHg 82%
    22:00 +8°C° 0 mm 4 mps 735 mmHg 85%
    23:00 +8°C° 0 mm 4 mps 735 mmHg 85%

    27 October, Saturday

    Time Temperature Precipitation Wind Pressure Humidity
    00:00 +9°C° 0 mm 3 mps 735 mmHg 86%
    01:00 +8°C° 0 mm 3 mps 734 mmHg 87%
    02:00 +8°C° 0 mm 3 mps 734 mmHg 86%
    03:00 +8°C° 0 mm 3 mps 734 mmHg 85%
    04:00 +8°C° 0 mm 3 mps 734 mmHg 84%
    05:00 +8°C° 0 mm 3 mps 734 mmHg 84%
    06:00 +8°C° 0 mm 3 mps 734 mmHg 84%
    07:00 +8°C° 0 mm 3 mps 734 mmHg 84%
    08:00 +9°C° 0.1 mm 3 mps 734 mmHg 80%
    09:00 +9°C° 0.1 mm 3 mps 734 mmHg 77%
    10:00 +10°C° 0.1 mm 4 mps 735 mmHg 73%
    11:00 +10°C° 0.1 mm 3 mps 735 mmHg 71%
    12:00 +10°C° 0.1 mm 3 mps 735 mmHg 69%
    13:00 +10°C° 0.1 mm 3 mps 735 mmHg 67%
    14:00 +10°C° 0.1 mm 2 mps 735 mmHg 69%
    15:00 +9°C° 0.1 mm 2 mps 735 mmHg 71%
    16:00 +10°C° 0.1 mm 1 mps 735 mmHg 73%
    17:00 +9°C° 0.1 mm 1 mps 735 mmHg 74%
    18:00 +9°C° 0.1 mm 1 mps 735 mmHg 75%
    19:00 +9°C° 0.1 mm 1 mps 736 mmHg 76%
    20:00 +7°C° 0.1 mm 2 mps 736 mmHg 76%
    21:00 +7°C° 0.1 mm 2 mps 736 mmHg 75%
    22:00 +7°C° 0.1 mm 2 mps 736 mmHg 75%
    23:00 +7°C° 0.1 mm 2 mps 735 mmHg 76%

    28 October, Sunday

    Time Temperature Precipitation Wind Pressure Humidity
    00:00 +6°C° 0.1 mm 2 mps 735 mmHg 77%
    01:00 +5°C° 0.1 mm 3 mps 735 mmHg 77%
    02:00 +5°C° 0.2 mm 3 mps 735 mmHg 78%
    03:00 +5°C° 0.2 mm 3 mps 735 mmHg 79%
    04:00 +5°C° 0.2 mm 4 mps 734 mmHg 80%
    05:00 +5°C° 0.6 mm 4 mps 734 mmHg 81%
    06:00 +4°C° 0.6 mm 4 mps 734 mmHg 81%
    07:00 +4°C° 0.6 mm 4 mps 734 mmHg 82%
    08:00 +3°C° 0.8 mm 5 mps 734 mmHg 82%
    09:00 +3°C° 0.8 mm 5 mps 734 mmHg 81%
    10:00 +3°C° 0.8 mm 6 mps 734 mmHg 81%
    11:00 +3°C° 1.3 mm 6 mps 733 mmHg 83%
    12:00 +3°C° 1.3 mm 6 mps 733 mmHg 84%
    13:00 +3°C° 1.3 mm 5 mps 733 mmHg 85%
    14:00 +3°C° 1.2 mm 5 mps 733 mmHg 86%
    15:00 +3°C° 1.2 mm 5 mps 732 mmHg 87%
    16:00 +3°C° 1.2 mm 5 mps 732 mmHg 88%
    17:00 +3°C° 2.4 mm 5 mps 732 mmHg 89%
    18:00 +2°C° 2.4 mm 5 mps 731 mmHg 90%
    19:00 +2°C° 2.4 mm 5 mps 731 mmHg 91%
    20:00 +2°C° 3.6 mm 5 mps 730 mmHg 92%
    21:00 +2°C° 3.6 mm 5 mps 730 mmHg 93%
    22:00 +2°C° 3.6 mm 5 mps 729 mmHg 93%
    23:00 +3°C° 2.6 mm 5 mps 729 mmHg 93%

    29 October, Monday

    Time Temperature Precipitation Wind Pressure Humidity
    00:00 +4°C° 2.6 mm 4 mps 728 mmHg 94%
    01:00 +4°C° 2.6 mm 4 mps 728 mmHg 94%
    02:00 +4°C° 1.7 mm 4 mps 727 mmHg 94%
    03:00 +4°C° 1.7 mm 4 mps 727 mmHg 94%
    04:00 +4°C° 1.7 mm 4 mps 726 mmHg 95%
    05:00 +4°C° 1.1 mm 4 mps 726 mmHg 95%
    06:00 +4°C° 1.1 mm 3 mps 726 mmHg 95%
    07:00 +4°C° 1.1 mm 3 mps 726 mmHg 95%
    08:00 +4°C° 0.3 mm 3 mps 725 mmHg 94%
    09:00 +5°C° 0.3 mm 2 mps 725 mmHg 94%
    10:00 +5°C° 0.3 mm 2 mps 725 mmHg 93%
    11:00 +5°C° 0.4 mm 2 mps 725 mmHg 94%
    12:00 +6°C° 0.4 mm 2 mps 725 mmHg 94%
    13:00 +6°C° 0.4 mm 2 mps 725 mmHg 94%
    14:00 +6°C° 1.1 mm 2 mps 725 mmHg 94%
    15:00 +5°C° 1.1 mm 2 mps 725 mmHg 94%
    16:00 +4°C° 1.1 mm 3 mps 724 mmHg 95%
    17:00 +4°C° 0.6 mm 3 mps 724 mmHg 94%
    18:00 +4°C° 0.6 mm 3 mps 724 mmHg 94%
    19:00 +3°C° 0.6 mm 3 mps 724 mmHg 94%
    20:00 +4°C° 0.5 mm 2 mps 724 mmHg 94%
    21:00 +4°C° 0.5 mm 2 mps 725 mmHg 94%
    22:00 +5°C° 0.5 mm 1 mps 725 mmHg 94%
    23:00 +5°C° 0 mm 2 mps 725 mmHg 93%
    Show more